Regional Weather Roundup
Issued by NWS

Home | Current Version | Previous Version | Graphics & Text | Print | Product List | Glossary On
Versions: 1 2 3 4 5 6 7 8 9 10 11 12 13 14 15 16 17 18 19 20 21 22 23 24 25 26 27 28 29 30 31 32 33 34 35 36 37 38 39 40 41 42 43 44 45 46 47 48 49 50
000
ASUS43 KMPX 252310
RWRMN
WEATHER ROUNDUP FOR MINNESOTA
NATIONAL WEATHER SERVICE TWIN CITIES/CHANHASSEN MN
600 PM CDT SAT APR 25 2015


NOTE: "FAIR" INDICATES FEW OR NO CLOUDS BELOW 12,000 FEET WITH NO
SIGNIFICANT WEATHER AND/OR OBSTRUCTIONS TO VISIBILITY. N/A MEANS
CURRENT SKY AND/OR WEATHER CONDITIONS ARE NOT AVAILABLE.

MNZ060>063-068>070-260000-
   Twin Cities Metro

CITY           SKY/WX    TMP DP  RH WIND       PRES   REMARKS
TWIN CITIES    MOSUNNY   61  22  22 E13       29.85R
ST PAUL        SUNNY     61  17  18 NE10      29.86R
CRYSTAL        SUNNY     63  19  18 E8        29.85R
BLAINE         MOSUNNY   63  19  19 E9        29.85S
LAKEVILLE      SUNNY     57  28  33 E7G16     29.85S
EDEN PRAIRIE   SUNNY     61  26  26 E13       29.84R
SOUTH ST PAUL  SUNNY     62  18  18 E8        29.85S
LAKE ELMO      FAIR      61  23  23 NE10      29.87R
$$
MNZ001>005-007-008-013>017-022>024-027-028-260000-
   Northwest Minnesota

CITY           SKY/WX    TMP DP  RH WIND       PRES   REMARKS
BEMIDJI        SUNNY     57  29  34 E9        29.93R
HALLOCK        SUNNY     64  28  25 SE13      29.90R
ROSEAU         SUNNY     61  30  31 E18       29.93R
WARROAD        SUNNY     54  34  47 NE14      29.96R
THIEF RVR FALL SUNNY     61  30  31 E14       29.91R
CROOKSTON      CLOUDY    63  36  36 SE8       29.90R
FOSSTON        SUNNY     63  30  29 E9        29.91S
DETROIT LAKES  SUNNY     59  28  31 E6G20     29.90S
MOORHEAD       SUNNY     61  36  39 SE12G18   29.89R
PARK RAPIDS    SUNNY     59  26  28 SE12      29.91R
MAHNOMEN       FAIR      58  31  35 SE8G17    29.90R
$$
MNZ006-009>011-018-025>026-260000-
   North Central Minnesota

CITY           SKY/WX    TMP DP  RH WIND       PRES   REMARKS
BAUDETTE       SUNNY     59  28  30 VRB7      29.95R
FLAG ISLAND    SUNNY     54  30  40 SE7       29.96R
INTL FALLS     SUNNY     56  25  30 NE12      29.96R
WASKISH        MOSUNNY   61  34  36 NE9       29.93R
BIG FORK       SUNNY     61  27  27 E8        29.94R
LONGVILLE      SUNNY     57  28  33 E7        29.93R
GRAND RAPIDS   SUNNY     55  27  33 NE8       29.93S
CRANE LAKE     SUNNY     55  18  22 NE3       29.98R
ORR            SUNNY     57  18  21 SE5       29.93R
COOK           SUNNY     55  23  28 NE6       29.96R
WALKER         FAIR      55  30  37 E7        29.93R
$$
MNZ012-019>021-037-260000-
   Northeast Minnesota

CITY           SKY/WX    TMP DP  RH WIND       PRES   REMARKS
DULUTH         SUNNY     45   5  19 E16       29.98R
ELY            SUNNY     54  12  19 NE7       29.96R
HIBBING        SUNNY     57  18  21 SE14      29.93R
EVELETH        SUNNY     54  12  19 SE7       29.96R
DULUTH HARBOR  SUNNY     39  30  70 NE14      30.02R
TWO HARBORS    SUNNY     46  23  39 E13G18    29.99R
SILVER BAY     SUNNY     45  16  31 NE13      30.00S
GRAND MARAIS     N/A     40  25  55 E6        30.03R
G MARAIS ARPRT SUNNY     41  18  38 E5        29.99S
$$
MNZ029>031-032-039>041-046>048-054>057-064-260000-
   West Central Minnesota

CITY           SKY/WX    TMP DP  RH WIND       PRES   REMARKS
FERGUS FALLS   SUNNY     59  34  38 SE8       29.89S
WHEATON        PTSUNNY   54  43  66 E6        29.90R
MORRIS         PTSUNNY   57  43  58 E12       29.87R
ALEXANDRIA     MOSUNNY   56  38  50 E10       29.89S
ELBOW LAKE     FAIR      56  40  56 SE8       29.89R
WADENA         SUNNY     57  30  35 E12G17    29.90R
GLENWOOD       MOSUNNY   57  41  54 E9G17     29.89S
APPLETON       SUNNY     59  39  47 E8        29.86R
BENSON         PTSUNNY   61  37  41 SE7       29.87R
ORTONVILLE     CLOUDY    55  41  58 SE5       29.87R
MADISON        PTSUNNY   59  39  47 E13       29.85S
WILLMAR        FAIR      59  39  47 E14       29.88R
$$
MNZ033>034-036-042>043-049>051-058-059-260000-
   Central Minnesota

CITY           SKY/WX    TMP DP  RH WIND       PRES   REMARKS
ST CLOUD       SUNNY     59  27  29 NE8G18    29.88R
SAUK CENTRE    FAIR      56  38  50 NE9       29.89S
PAYNESVILLE    SUNNY     55  35  45 N7        29.88R
AITKIN         SUNNY     55  27  33 E10G18    29.92R
PINE RIVER     SUNNY     55  30  38 E12G17    29.96R
BRAINERD       SUNNY     56  25  30 E8        29.92R
STAPLES        SUNNY     57  25  28 E9        29.91R
LONG PRAIRIE   FAIR      55  37  50 NE12      29.90S
LITTLE FALLS   SUNNY     55  30  38 E7        29.90R
LITCHFIELD     SUNNY     61  32  33 NE9       29.87R
BUFFALO        SUNNY     61  23  23 E9        29.87R
MAPLE LAKE     SUNNY     62  30  30 E8        29.87S
$$
MNZ037-044-045-052-053-260000-
   East Central Minnesota

CITY           SKY/WX    TMP DP  RH WIND       PRES   REMARKS
PRINCETON      CLOUDY    59  32  36 NE13      29.89R
MORA           SUNNY     54  30  40 NE10      29.92S
CAMBRIDGE      PTSUNNY   61  39  44 N12G20    29.86R
RUSH CITY      SUNNY     56  32  39 N16G23    29.89R
MOOSE LAKE     SUNNY     50  23  34 CALM      29.94R
HINCKLEY       FAIR      54  30  40 N17       29.92R
CLOQUET        SUNNY     43  10  26 E14       29.98R
MCGREGOR       SUNNY     54  27  35 E15       29.94R
$$
MNZ071>073-080-081-089-090-097-098-260000-
   Southwest Minnesota

CITY           SKY/WX    TMP DP  RH WIND       PRES   REMARKS
MONTEVIDEO     PTSUNNY   61  41  48 E13       29.86R
GRANITE FALLS  PTSUNNY   60  38  43 E3        29.86R
CANBY          CLOUDY    59  40  49 E9        29.85R
MARSHALL       MOSUNNY   57  37  47 E12       29.84R
REDWOOD FALLS  MOSUNNY   59  38  45 SE10      29.84R
OLIVIA         MOSUNNY   57  34  41 E12       29.85R
PIPESTONE      MOSUNNY   55  39  54 E10       29.82R
WINDOM         CLOUDY    55  37  50 E14G21    29.85R
WORTHINGTON    CLOUDY    54  37  54 E16       29.83R
JACKSON        CLOUDY    54  37  54 E16       29.85R
TRACY          PTSUNNY   56  41  55 E15       29.85R
SLAYTON        PTSUNNY   54  38  54 E16       29.85R
$$
MNZ065>067-074>077-082>085-091>093-260000-
   South Central Minnesota

CITY           SKY/WX    TMP DP  RH WIND       PRES   REMARKS
MANKATO        PTSUNNY   57  37  47 E12       29.86R
NEW ULM        PTSUNNY   57  37  47 E14       29.85R
ST JAMES       CLOUDY    55  37  50 NE16      29.86S
FAIRMONT       CLOUDY    54  36  50 E15       29.85R
GLENCOE        SUNNY     60  35  38 NE8       29.85R
FARIBAULT      MOSUNNY   55  36  47 NE7       29.86R
OWATONNA       CLOUDY    54  36  50 E10       29.86R
WASECA         CLOUDY    52  37  58 E13G20    29.86R
ALBERT LEA     CLOUDY    52  39  62 NE9       29.85R
$$
MNZ078>079-086>088-094>096-260000-
   Southeast Minnesota

CITY           SKY/WX    TMP DP  RH WIND       PRES   REMARKS
ROCHESTER      PTSUNNY   53  35  50 NE10      29.86R
RED WING       SUNNY     61  16  17 E7        29.84R
STANTON        MOSUNNY   60  26  28 NE14G20   29.84R
DODGE CENTER   PTSUNNY   54  39  58 NE12      29.86R
WINONA         MOSUNNY   59  28  31 SE13      29.84R
AUSTIN         CLOUDY    52  39  62 NE9       29.85R
PRESTON        CLOUDY    52  33  48 E9        29.85R
$$
ABBREVIATIONS USED IN REMARKS
   TC - TEMPERATURES IN CELSIUS
  WCI - WIND CHILL INDEX
   HX - HEAT INDEX
  VSB - VISIBILITY
$$


USA.gov is the U.S. government's official web portal to all federal, state and local government web resources and services.